TimePDT,TemperatureF,Dew PointF,Humidity,Sea Level PressureIn,VisibilityMPH,Wind Direction,Wind SpeedMPH,Gust SpeedMPH,PrecipitationIn,Events,Conditions,WindDirDegrees,DateUTC
12:53 AM,55.9,48.0,75,29.91,10.0,Calm,Calm,-,N/A,,Overcast,0,2013-04-04 07:53:00
1:53 AM,55.9,48.9,77,29.90,10.0,Calm,Calm,-,0.00,Rain,Light Rain,0,2013-04-04 08:53:00
2:53 AM,55.9,50.0,80,29.86,10.0,WNW,3.5,-,0.01,,Overcast,290,2013-04-04 09:53:00
3:53 AM,53.1,51.1,93,29.82,10.0,West,4.6,-,N/A,,Overcast,280,2013-04-04 10:53:00
4:53 AM,53.1,50.0,89,29.78,10.0,WNW,5.8,-,N/A,,Overcast,290,2013-04-04 11:53:00
5:53 AM,53.1,48.9,86,29.73,10.0,Calm,Calm,-,N/A,,Overcast,0,2013-04-04 12:53:00
6:53 AM,54.0,48.9,83,29.74,10.0,SW,5.8,-,N/A,,Overcast,220,2013-04-04 13:53:00
7:53 AM,54.0,48.9,83,29.74,10.0,ENE,4.6,-,0.00,Rain,Light Rain,70,2013-04-04 14:53:00
8:53 AM,54.0,51.1,90,29.76,7.0,ESE,8.1,-,0.01,Rain,Light Rain,120,2013-04-04 15:53:00
9:53 AM,55.0,52.0,89,29.75,10.0,SE,5.8,-,0.02,Rain,Light Rain,130,2013-04-04 16:53:00
10:53 AM,55.0,52.0,89,29.74,10.0,Calm,Calm,-,0.03,Rain,Light Rain,0,2013-04-04 17:53:00
11:53 AM,55.9,52.0,87,29.74,7.0,East,3.5,-,0.03,Rain,Light Rain,80,2013-04-04 18:53:00
12:53 PM,55.0,53.1,93,29.73,6.0,ESE,5.8,-,0.04,Rain,Light Rain,110,2013-04-04 19:53:00
1:53 PM,55.9,53.1,90,29.71,10.0,ESE,15.0,-,0.03,Rain,Light Rain,110,2013-04-04 20:53:00
2:53 PM,57.0,54.0,89,29.72,10.0,ESE,9.2,19.6,0.02,,Overcast,120,2013-04-04 21:53:00
3:53 PM,61.0,55.0,81,29.77,10.0,SSW,15.0,19.6,0.00,,Mostly Cloudy,200,2013-04-04 22:53:00
4:53 PM,61.0,53.1,75,29.78,10.0,South,10.4,-,0.00,,Overcast,190,2013-04-04 23:53:00
5:53 PM,61.0,52.0,72,29.78,10.0,SSW,10.4,-,N/A,,Mostly Cloudy,200,2013-04-05 00:53:00
6:53 PM,61.0,50.0,67,29.78,10.0,SSW,12.7,-,N/A,,Mostly Cloudy,200,2013-04-05 01:53:00
7:53 PM,60.1,48.9,67,29.79,10.0,South,11.5,20.7,N/A,,Mostly Cloudy,190,2013-04-05 02:53:00
8:53 PM,57.9,48.0,70,29.81,10.0,SSW,11.5,-,N/A,,Mostly Cloudy,200,2013-04-05 03:53:00
9:53 PM,57.0,48.0,72,29.83,10.0,South,9.2,-,0.00,,Mostly Cloudy,180,2013-04-05 04:53:00
10:53 PM,55.9,48.0,75,29.86,10.0,South,10.4,18.4,N/A,,Overcast,180,2013-04-05 05:53:00
11:53 PM,55.0,46.9,74,29.86,10.0,South,11.5,-,N/A,,Overcast,190,2013-04-05 06:53:00